Weather History for Canton, GA

Change the Weather History Date:

Sunday, February 17, 2013

  Actual Average (KGVL) Record (KGVL)
Temperature  
Mean Temperature 0 °C 8 °C  
Max Temperature 7 °C 13 °C 24 °C (1976)
Min Temperature -6 °C 2 °C -17 °C (1958)
Degree Days  
Heating Degree Days 32 19  
Month to date heating degree days 352  
Since 1 July heating degree days 2270  
Moisture  
Dew Point -18 °C    
Average Humidity 31    
Maximum Humidity 58    
Minimum Humidity 7    
Precipitation  
Precipitation 0.00 mm 4.57 mm 6.10 mm (1942)
Month to date precipitation 2.75  
Year to date precipitation 7.78  
Snow  
Snow 0.00 cm - - ()
Month to date snowfall  
Since 1 July snowfall  
Snow Depth -    
Sea Level Pressure  
Sea Level Pressure 1023 hPa    
Wind  
Wind Speed 10 km/h (WNW)    
Max Wind Speed 21 km/h    
Max Gust Speed 35 km/h    
Visibility 16 kilometers    
Events      
T = Trace of Precipitation, MM = Missing Value Source: NWS Daily Summary

Daily Weather History Graph

Daily Weather History Graph

Search for Another Location

Airport:

Trip Planner

Search our weather history database for the weather conditions in past years. The results will help you decide how hot, cold, wet, or windy it might be!

Date:

Astronomy

Feb. 17, 2013 Rise Set
Actual Time 7:20 AM EST 6:23 PM EST
Civil Twilight 6:54 AM EST 6:49 PM EST
Nautical Twilight 6:25 AM EST 7:18 PM EST
Astronomical Twilight 5:56 AM EST 7:47 PM EST
Moon 11:33 AM EST (2/17) 12:58 AM EST (2/17)
Length of Visible Light 11h 54m
Length of Day
11h 03m
Waxing Crescent, 49% of the Moon is Illuminated
Feb 17
Waxing Crescent
Feb 17
First Quarter
Feb 25
Full
Mar 4
Last Quarter
Mar 11
New

Hourly Weather History & Observations

Time (EST) Temp. Windchill Dew Point Humidity Pressure Visibility Wind Dir Wind Speed Gust Speed Precip Events Conditions
12:15 AM -2.0 °C -6.0 °C -11.0 °C 51% 1019.9 hPa 16.1 km NW 11.1 km/h / 3.1 m/s 27.8 km/h / 7.7 m/s N/A   Clear
12:35 AM -2.0 °C -6.8 °C -12.0 °C 47% 1019.9 hPa 16.1 km NW 14.8 km/h / 4.1 m/s - N/A   Clear
12:55 AM -2.0 °C -5.5 °C -13.0 °C 43% 1019.9 hPa 16.1 km NW 9.3 km/h / 2.6 m/s 25.9 km/h / 7.2 m/s N/A   Clear
1:15 AM -2.0 °C -5.5 °C -13.0 °C 43% 1020.2 hPa 16.1 km WNW 9.3 km/h / 2.6 m/s - N/A   Clear
1:35 AM -2.0 °C -6.0 °C -13.0 °C 43% 1020.5 hPa 16.1 km NW 11.1 km/h / 3.1 m/s - N/A   Clear
1:55 AM -2.0 °C -4.1 °C -13.0 °C 43% 1020.9 hPa 16.1 km NW 5.6 km/h / 1.5 m/s - N/A   Clear
2:15 AM -3.0 °C -6.0 °C -13.0 °C 47% 1020.9 hPa 16.1 km WNW 7.4 km/h / 2.1 m/s - N/A   Clear
2:35 AM -3.0 °C -6.0 °C -15.0 °C 40% 1020.5 hPa 16.1 km WNW 7.4 km/h / 2.1 m/s - N/A   Clear
2:55 AM -4.0 °C -7.2 °C -13.0 °C 50% 1020.5 hPa 16.1 km WNW 7.4 km/h / 2.1 m/s - N/A   Clear
3:15 AM -4.0 °C -6.4 °C -13.0 °C 50% 1020.9 hPa 16.1 km WNW 5.6 km/h / 1.5 m/s - N/A   Clear
3:35 AM -3.0 °C -6.0 °C -14.0 °C 43% 1020.9 hPa 16.1 km WNW 7.4 km/h / 2.1 m/s - N/A   Clear
3:55 AM -4.0 °C -7.2 °C -13.0 °C 50% 1020.9 hPa 16.1 km WNW 7.4 km/h / 2.1 m/s - N/A   Clear
4:15 AM -4.0 °C -7.8 °C -13.0 °C 50% 1021.2 hPa 16.1 km WNW 9.3 km/h / 2.6 m/s - N/A   Clear
4:35 AM -4.0 °C -7.2 °C -14.0 °C 46% 1021.2 hPa 16.1 km NW 7.4 km/h / 2.1 m/s - N/A   Clear
4:55 AM -5.0 °C -9.0 °C -13.0 °C 54% 1021.2 hPa 16.1 km NW 9.3 km/h / 2.6 m/s - N/A   Clear
5:15 AM -5.0 °C -8.4 °C -13.0 °C 54% 1021.2 hPa 16.1 km NW 7.4 km/h / 2.1 m/s - N/A   Clear
5:35 AM -4.0 °C -7.2 °C -14.0 °C 46% 1021.2 hPa 16.1 km WNW 7.4 km/h / 2.1 m/s - N/A   Clear
5:55 AM -5.0 °C -8.4 °C -14.0 °C 50% 1021.6 hPa 16.1 km WNW 7.4 km/h / 2.1 m/s - N/A   Clear
6:15 AM -5.0 °C -9.6 °C -13.0 °C 54% 1021.9 hPa 16.1 km WNW 11.1 km/h / 3.1 m/s - N/A   Clear
6:35 AM -5.0 °C -8.4 °C -14.0 °C 50% 1021.9 hPa 16.1 km NW 7.4 km/h / 2.1 m/s - N/A   Clear
6:55 AM -5.0 °C -9.0 °C -13.0 °C 54% 1021.9 hPa 16.1 km NW 9.3 km/h / 2.6 m/s - N/A   Clear
7:15 AM -6.0 °C -10.2 °C -13.0 °C 58% 1022.2 hPa 16.1 km WNW 9.3 km/h / 2.6 m/s - N/A   Clear
7:35 AM -5.0 °C -9.6 °C -14.0 °C 50% 1022.6 hPa 16.1 km WNW 11.1 km/h / 3.1 m/s - N/A   Clear
7:55 AM -5.0 °C -9.6 °C -13.0 °C 54% 1022.6 hPa 16.1 km NW 11.1 km/h / 3.1 m/s - N/A   Clear
8:15 AM -4.0 °C -8.4 °C -15.0 °C 43% 1022.9 hPa 16.1 km NW 11.1 km/h / 3.1 m/s - N/A   Clear
8:35 AM -3.0 °C -7.6 °C -15.0 °C 40% 1023.2 hPa 16.1 km NW 13.0 km/h / 3.6 m/s - N/A   Clear
8:55 AM -2.0 °C -5.5 °C -15.0 °C 37% 1023.6 hPa 16.1 km WNW 9.3 km/h / 2.6 m/s - N/A   Clear
9:15 AM -1.0 °C -4.8 °C -16.0 °C 32% 1023.9 hPa 16.1 km WNW 11.1 km/h / 3.1 m/s - N/A   Clear
9:35 AM -1.0 °C -4.3 °C -16.0 °C 32% 1024.3 hPa 16.1 km WNW 9.3 km/h / 2.6 m/s - N/A   Clear
9:55 AM 0.0 °C -3.6 °C -17.0 °C 27% 1024.3 hPa 16.1 km WNW 11.1 km/h / 3.1 m/s - N/A   Clear
10:15 AM 0.0 °C -4.7 °C -18.0 °C 25% 1024.3 hPa 16.1 km WNW 16.7 km/h / 4.6 m/s - N/A   Clear
10:35 AM 1.0 °C -1.9 °C -18.0 °C 23% 1024.6 hPa 16.1 km WNW 9.3 km/h / 2.6 m/s - N/A   Clear
10:55 AM 2.0 °C -0.2 °C -21.0 °C 17% 1024.6 hPa 16.1 km WNW 7.4 km/h / 2.1 m/s - N/A   Clear
11:15 AM 3.0 °C -0.7 °C -20.0 °C 17% 1024.6 hPa 16.1 km NW 14.8 km/h / 4.1 m/s 29.6 km/h / 8.2 m/s N/A   Clear
11:35 AM 3.0 °C 0.0 °C -21.0 °C 16% 1024.6 hPa 16.1 km WNW 11.1 km/h / 3.1 m/s 27.8 km/h / 7.7 m/s N/A   Clear
11:55 AM 3.0 °C -0.7 °C -22.0 °C 15% 1024.6 hPa 16.1 km NW 14.8 km/h / 4.1 m/s 33.3 km/h / 9.3 m/s N/A   Clear
12:15 PM 4.0 °C 0.3 °C -22.0 °C 14% 1024.6 hPa 16.1 km WNW 16.7 km/h / 4.6 m/s 35.2 km/h / 9.8 m/s N/A   Clear
12:35 PM 5.0 °C 2.8 °C -22.0 °C 13% 1024.3 hPa 16.1 km NW 9.3 km/h / 2.6 m/s - N/A   Clear
12:55 PM 5.0 °C 2.1 °C -24.0 °C 11% 1023.6 hPa 16.1 km NW 13.0 km/h / 3.6 m/s - N/A   Clear
1:15 PM 5.0 °C 1.0 °C -26.0 °C 9% 1023.6 hPa 16.1 km WNW 20.4 km/h / 5.7 m/s 35.2 km/h / 9.8 m/s N/A   Clear
1:55 PM 6.0 °C 3.3 °C -27.0 °C 8% 1023.2 hPa 16.1 km WNW 13.0 km/h / 3.6 m/s 27.8 km/h / 7.7 m/s N/A   Clear
2:15 PM 6.0 °C 3.0 °C -27.0 °C 8% 1022.9 hPa 16.1 km NW 14.8 km/h / 4.1 m/s 27.8 km/h / 7.7 m/s N/A   Clear
2:35 PM 7.0 °C 5.7 °C -28.0 °C 7% 1022.6 hPa 16.1 km WNW 7.4 km/h / 2.1 m/s 27.8 km/h / 7.7 m/s N/A   Clear
2:55 PM 6.0 °C 2.5 °C -27.0 °C 8% 1022.2 hPa 16.1 km WNW 18.5 km/h / 5.1 m/s 31.5 km/h / 8.7 m/s N/A   Clear
3:15 PM 6.0 °C 5.0 °C -27.0 °C 8% 1022.6 hPa 16.1 km WNW 5.6 km/h / 1.5 m/s 31.5 km/h / 8.7 m/s N/A   Clear
3:35 PM 7.0 °C 3.6 °C -27.0 °C 7% 1022.6 hPa 16.1 km WNW 20.4 km/h / 5.7 m/s 33.3 km/h / 9.3 m/s N/A   Clear
3:55 PM 7.0 °C 3.8 °C -25.0 °C 9% 1022.2 hPa 16.1 km NW 18.5 km/h / 5.1 m/s 29.6 km/h / 8.2 m/s N/A   Clear
4:15 PM 7.0 °C 4.5 °C -26.0 °C 8% 1022.2 hPa 16.1 km WNW 13.0 km/h / 3.6 m/s 27.8 km/h / 7.7 m/s N/A   Clear
4:35 PM 6.0 °C 4.5 °C -25.0 °C 9% 1022.2 hPa 16.1 km WNW 7.4 km/h / 2.1 m/s - N/A   Clear
4:55 PM 6.0 °C 3.3 °C -23.0 °C 11% 1022.6 hPa 16.1 km NW 13.0 km/h / 3.6 m/s - N/A   Clear
5:15 PM 6.0 °C 4.5 °C -22.0 °C 12% 1022.6 hPa 16.1 km WNW 7.4 km/h / 2.1 m/s - N/A   Clear
5:35 PM 5.0 °C 2.8 °C -21.0 °C 14% 1022.6 hPa 16.1 km WNW 9.3 km/h / 2.6 m/s - N/A   Clear
5:55 PM 5.0 °C 3.3 °C -20.0 °C 15% 1022.9 hPa 16.1 km NW 7.4 km/h / 2.1 m/s - N/A   Clear
6:15 PM 4.0 °C - -19.0 °C 17% 1022.9 hPa 16.1 km Calm Calm - N/A   Clear
6:35 PM 4.0 °C - -21.0 °C 15% 1023.2 hPa 16.1 km Calm Calm - N/A   Clear
6:55 PM 4.0 °C - -22.0 °C 14% 1023.2 hPa 16.1 km Calm Calm - N/A   Clear
7:15 PM 3.0 °C - -21.0 °C 16% 1023.2 hPa 16.1 km Calm Calm - N/A   Clear
7:55 PM 3.0 °C - -21.0 °C 16% 1023.6 hPa 16.1 km Calm Calm - N/A   Clear
8:15 PM 2.0 °C -0.2 °C -16.0 °C 26% 1023.9 hPa 16.1 km SSW 7.4 km/h / 2.1 m/s - N/A   Clear
8:35 PM 2.0 °C - -19.0 °C 20% 1023.9 hPa 16.1 km Calm Calm - N/A   Clear
8:55 PM 1.0 °C - -17.0 °C 25% 1023.9 hPa 16.1 km Calm Calm - N/A   Clear
9:15 PM 0.0 °C - -16.0 °C 30% 1024.3 hPa 16.1 km Calm Calm - N/A   Clear
9:35 PM 0.0 °C - -15.0 °C 32% 1024.6 hPa 16.1 km Calm Calm - N/A   Clear
9:55 PM 0.0 °C - -16.0 °C 30% 1024.6 hPa 16.1 km Calm Calm - N/A   Clear
10:15 PM 0.0 °C - -14.0 °C 35% 1024.6 hPa 16.1 km Calm Calm - N/A   Clear
10:35 PM -1.0 °C - -13.0 °C 40% 1024.6 hPa 16.1 km Calm Calm - N/A   Clear
10:55 PM -1.0 °C - -13.0 °C 40% 1024.6 hPa 16.1 km Calm Calm - N/A   Clear
11:15 PM -1.0 °C - -12.0 °C 44% 1024.6 hPa 16.1 km Calm Calm - N/A   Clear
11:35 PM -1.0 °C - -13.0 °C 40% 1024.6 hPa 16.1 km Calm Calm - N/A   Clear
11:55 PM -1.0 °C - -13.0 °C 40% 1024.6 hPa 16.1 km Calm Calm - N/A   Clear